This demonstration page uses our WeatherBlox Daily Observations layout. Learn more.

Left ArrowRight Arrow

Hourly Observations for December 6, 2018

Temp ( °F °C ) Dew Point ( °F °C ) Humidity (%) Winds ( mph kmh ) Pressure ( in mb ) Visibility ( mi km ) Precip ( " mm )
12:53 am 00:53 Cloudy 30 -1.1 23 -5 75 75 NNE 15 24 30.24 1024 10 16 0.00 0.00
1:53 am 01:53 Cloudy 30 -1.1 23 -5 75 75 N 20 31 30.27 1025 10 16 0.00 0.00
2:53 am 02:53 Cloudy 30 -1.1 22 -5.6 72 72 N 20 31 30.29 1026 10 16 0.00 0.00
3:53 am 03:53 Cloudy 29 -1.7 21 -6.1 72 72 N 21 33 30.32 1027 10 16 0.00 0.03
4:53 am 04:53 Cloudy 28 -2.2 21 -6.1 75 75 N 15 24 30.34 1027 10 16 0.00 0.00
5:53 am 05:53 Cloudy 27 -2.8 19 -7.2 72 72 N 20 31 30.37 1029 9 14 0.00 0.00
6:53 am 06:53 Clear 26 -3.3 20 -6.7 78 78 N 9 15 30.40 1029 8 13 0.00 0.00
7:53 am 07:53 Hazy 26 -3.3 20 -6.7 78 78 N 8 13 30.41 1030 6 10 0.00 0.00
8:53 am 08:53 Hazy 25 -3.9 20 -6.7 81 81 N 6 9 30.45 1031 5 8 0.00 0.00
9:53 am 09:53 Sunny 28 -2.2 21 -6.1 75 75 N 10 17 30.46 1032 8 13 0.00 0.00
10:53 am 10:53 Sunny 29 -1.7 21 -6.1 72 72 N 9 15 30.47 1032 10 16 0.00 0.00
11:53 am 11:53 Partly Cloudy 30 -1.1 21 -6.1 69 69 N 8 13 30.47 1032 10 16 0.00 0.00
12:01 pm 12:01 Mostly Cloudy 30 -1.1 21 -6.1 69 69 N 7 11 30.50 1033 10 16 0.00 0.00
12:53 pm 12:53 Cloudy 30 -1.1 22 -5.6 72 72 N 10 17 30.46 1031 10 16 0.00 0.00
1:53 pm 13:53 Cloudy 30 -1.1 21 -6.1 69 69 N 13 20 30.45 1031 10 16 0.00 0.00
2:49 pm 14:49 Partly Cloudy 30 -1 19 -7 64 64 NE 8 13 30.48 1032 10 16 0.00 0.00
2:53 pm 14:53 Mostly Sunny 30 -1.1 20 -6.7 66 66 NE 6 9 30.45 1031 10 16 0.00 0.00
3:14 pm 15:14 Mostly Cloudy 28 -2 19 -7 69 69 N 6 9 30.50 1033 10 16 0.00 0.00
3:53 pm 15:53 Cloudy 30 -1.1 19 -7.2 64 64 N 7 11 30.45 1031 10 16 0.00 0.00
4:53 pm 16:53 Cloudy 29 -1.7 18 -7.8 63 63 NNW 3 6 30.47 1032 10 16 0.00 0.00
5:53 pm 17:53 Cloudy 28 -2.2 19 -7.2 69 69 Calm 30.48 1032 10 16 0.00 0.00
6:53 pm 18:53 Cloudy 29 -1.7 20 -6.7 69 69 Calm 30.47 1032 10 16 0.00 0.00
7:53 pm 19:53 Cloudy 27 -2.8 20 -6.7 75 75 W 6 9 30.48 1032 10 16 0.00 0.00
8:53 pm 20:53 Cloudy 25 -3.9 19 -7.2 78 78 WNW 3 6 30.49 1033 10 16 0.00 0.00
9:53 pm 21:53 Cloudy 23 -5 18 -7.8 81 81 Calm 30.49 1033 10 16 0.00 0.00
10:13 pm 22:13 Mostly Cloudy 21 -6 18 -8 86 86 Calm 30.56 1035 10 16 0.00 0.00
10:53 pm 22:53 Mostly Cloudy 22 -5.6 17 -8.3 82 82 Calm 30.48 1032 10 16 0.00 0.00
11:53 pm 23:53 Cloudy 23 -5 18 -7.8 81 81 Calm 30.48 1032 10 16 0.00 0.00

Powered by AerisWeather